THOR ABLESTAR R/B, 669

Orbit data source: Space-Track

THOR ABLESTAR R/B, 669 is space debris in LEO originally from a launch on Sat, 28 Sep 1963 UTC launched from the Air Force Western Test Range (AFWTR). Debris objects in space refer to the collection of defunct objects orbiting the Earth. Examples of debris include non-operational satellites, rocket bodies, and fragments generated from explosions, collisions, or faulty payload assembly.

Loading next visibility...
Identifier
669, 1963-038A
Orbit
LEO
Country
Flag of USUS
Related business
Manufacturer
Aerojet
Mission
Spacecraft
Bus & Motor
ABLESTAR, Unknown motor
Mass
~600 kg wet, 600 kg dry
Launch date (UTC)
1963-09-28 (63 years ago)
Launch vehicle
Unknown
Launch site
Air Force Western Test Range (AFWTR)
Object type
Payload
Rocket body
Debris
Shape & HBR
CYL, 2.4 m
Radar Cross Section
Large (>1 m²)

Expand to show TLE details & history
Last TLE update: 7 hours ago

TLE from 7 hours ago
0 THOR ABLESTAR R/B
1 00669U 63038A   26237.51503998  .00000024  00000-0  24889-4 0  9992
2 00669  89.9791 334.0161 0024258 278.3615  91.9792 13.46135658 89036
Epoch: 2026-08-25T12:21Z
TLE epoch observation values (Epoch: 2026-08-25T12:21:39.454Z)
Latitude
10.56666°
Longitude
174.8243°
Altitude
1,089.379 km
Speed
7.308 km/s
True Right ascension
22h 16m 04s
True Declination
10° 30' 27"
Sunlit
Object was in full shadow at epoch
Visualization orbit readout
Latitude
Unknown
Longitude
Unknown
Altitude
Unknown
Speed
Unknown
Apparent Right ascension
Unknown
Apparent Declination
Unknown
Sunlit
N/A
Visualization observer readout
Local Sidereal Time
10:58:19
Azimuth
Unknown
Elevation
Unknown
Doppler factor
Unknown
Orbital elements
Apogee altitude
1,101.666 km
Perigee altitude
1,065.465 km
Semi-major axis
7,461.703 km
Eccentricity
0.00243
Inclination
89.9791°
RAAN
334.0161°
Arg. of periapsis
278.3615°
True anomaly
92.25698°
Mean anomaly
91.9792°
Eccentric anomaly
92.11809°
Mean motion
3.36733 °/min
Orbital period
106.91 mins
BSTAR
0.000024889
Loading maneuver chart data...
Computing Atmospheric mass density...

Documentation

Showing up to 5 results
|